Temp
-17 -17 -18 -18 -18 -18 -19 -19 -20 -21 -21 -21 -21 -22 -22 -22 -22 -22 -24 -24 -24 -23 -22 -21 -20 -20 -19 -19 -18 -18 -17 -16 -15 -16 -16 -16 -15 -15 -14 -14 -13 -13 -12
-18 -18 -18 -19 -19 -19 -20 -20 -21 -22 -22 -22 -22 -23 -23 -23 -23 -25 -25 -25 -26 -25 -24 -24 -23 -21 -20 -19 -19 -18 -18 -17 -16 -15 -16 -15 -16 -15 -15 -14 -14 -13 -13
-18 -19 -19 -19 -20 -20 -21 -22 -22 -22 -22 -23 -23 -23 -24 -24 -24 -26 -26 -26 -26 -26 -26 -25 -25 -24 -22 -20 -20 -19 -18 -18 -17 -16 -17 -16 -16 -16 -15 -15 -14 -14 -14
-19 -19 -19 -20 -20 -21 -22 -22 -22 -22 -22 -23 -24 -24 -24 -24 -26 -27 -27 -27 -26 -27 -26 -27 -26 -25 -24 -22 -22 -20 -19 -19 -18 -17 -16 -17 -15 -15 -15 -15 -15 -14 -14
-19 -20 -20 -20 -21 -22 -22 -22 -22 -23 -23 -24 -24 -25 -25 -26 -26 -27 -27 -27 -27 -27 -27 -27 -26 -25 -24 -23 -22 -21 -21 -20 -19 -18 -17 -17 -16 -15 -15 -15 -16 -15 -15
-20 -20 -20 -21 -22 -22 -22 -23 -23 -23 -24 -24 -25 -25 -26 -26 -27 -27 -28 -27 -27 -27 -27 -27 -27 -26 -24 -23 -22 -22 -21 -21 -20 -19 -17 -17 -16 -16 -16 -15 -16 -16 -15
-20 -21 -21 -22 -22 -22 -23 -23 -23 -24 -25 -25 -26 -26 -26 -26 -27 -28 -28 -28 -27 -27 -27 -27 -27 -26 -25 -23 -22 -22 -22 -21 -21 -20 -19 -17 -17 -17 -16 -16 -15 -16 -15
-21 -21 -22 -23 -23 -23 -23 -24 -24 -25 -25 -26 -26 -26 -26 -26 -27 -27 -27 -28 -28 -28 -28 -28 -28 -28 -25 -25 -24 -24 -23 -22 -21 -20 -19 -18 -17 -17 -17 -16 -16 -15 -15
-21 -22 -23 -23 -23 -23 -24 -24 -25 -26 -26 -26 -27 -27 -27 -27 -28 -27 -27 -27 -28 -27 -28 -28 -28 -28 -27 -26 -26 -25 -25 -24 -22 -21 -20 -19 -18 -18 -18 -17 -15 -15 -15
-22 -23 -23 -23 -24 -24 -25 -26 -26 -26 -27 -27 -27 -27 -26 -27 -28 -28 -27 -27 -27 -28 -28 -28 -28 -28 -27 -27 -27 -27 -27 -26 -24 -23 -21 -19 -19 -18 -18 -16 -16 -15 -15
-23 -23 -23 -24 -25 -25 -26 -26 -27 -27 -27 -27 -27 -26 -26 -27 -27 -27 -27 -27 -28 -28 -28 -28 -28 -28 -27 -27 -27 -27 -27 -27 -26 -24 -21 -20 -19 -18 -17 -17 -16 -16 -15
-23 -23 -24 -25 -26 -26 -27 -27 -27 -27 -27 -27 -26 -26 -26 -27 -27 -27 -27 -27 -28 -28 -28 -28 -28 -28 -27 -27 -27 -26 -26 -26 -26 -24 -21 -19 -19 -18 -17 -17 -16 -16 -15
-23 -24 -24 -26 -26 -27 -27 -27 -27 -27 -27 -26 -26 -26 -26 -26 -26 -27 -27 -27 -28 -28 -28 -28 -28 -27 -27 -27 -26 -26 -26 -26 -25 -22 -20 -19 -19 -18 -17 -16 -16 -16 -16
-23 -23 -24 -25 -25 -26 -26 -27 -27 -26 -26 -26 -26 -26 -26 -26 -26 -27 -26 -26 -26 -26 -25 -26 -26 -26 -26 -26 -26 -26 -25 -25 -23 -21 -20 -19 -19 -17 -17 -17 -17 -16 -15
-23 -23 -23 -23 -24 -24 -25 -26 -26 -26 -25 -25 -25 -25 -25 -24 -24 -24 -24 -24 -24 -24 -24 -24 -24 -25 -25 -25 -25 -25 -24 -22 -20 -20 -19 -19 -18 -18 -17 -17 -16 -16 -16
-23 -24 -23 -23 -23 -24 -24 -24 -24 -24 -24 -24 -23 -23 -23 -23 -23 -23 -23 -23 -23 -23 -24 -24 -24 -25 -25 -25 -24 -23 -21 -20 -20 -19 -18 -18 -18 -18 -17 -17 -17 -17 -16
-23 -24 -24 -24 -23 -23 -23 -22 -23 -22 -22 -23 -23 -22 -23 -22 -22 -23 -22 -23 -23 -24 -24 -24 -23 -23 -23 -22 -21 -20 -20 -19 -19 -19 -19 -18 -18 -18 -18 -17 -17 -17 -16
-23 -23 -23 -23 -22 -22 -22 -22 -22 -22 -22 -22 -22 -22 -22 -21 -21 -22 -22 -22 -22 -22 -22 -22 -22 -22 -21 -20 -20 -19 -19 -19 -18 -18 -18 -18 -17 -17 -17 -17 -17 -18 -18
-23 -23 -22 -22 -22 -22 -22 -22 -22 -22 -22 -22 -22 -22 -22 -21 -21 -21 -20 -21 -20 -21 -21 -21 -20 -20 -20 -19 -19 -19 -18 -18 -18 -17 -17 -16 -17 -17 -18 -18 -19 -19 -20
-23 -22 -22 -22 -22 -22 -22 -22 -22 -22 -22 -22 -21 -21 -21 -21 -21 -20 -20 -20 -19 -20 -20 -20 -19 -19 -19 -18 -18 -18 -17 -17 -17 -16 -17 -16 -17 -17 -18 -20 -20 -21 -21
-22 -22 -21 -22 -22 -22 -22 -22 -22 -22 -22 -21 -21 -20 -20 -20 -20 -20 -20 -20 -20 -20 -19 -19 -18 -18 -18 -18 -17 -17 -17 -16 -17 -17 -17 -17 -17 -18 -19 -20 -20 -21 -20
-22 -22 -23 -23 -22 -22 -22 -22 -22 -22 -21 -20 -20 -19 -19 -19 -19 -19 -19 -19 -19 -19 -18 -18 -18 -18 -17 -17 -17 -16 -17 -17 -17 -17 -17 -17 -17 -17 -18 -19 -19 -19 -18
-22 -22 -23 -23 -22 -22 -21 -21 -21 -21 -20 -20 -20 -19 -19 -19 -19 -19 -18 -18 -19 -19 -18 -18 -17 -17 -16 -16 -17 -17 -17 -17 -17 -17 -17 -17 -17 -19 -18 -18 -18 -17 -17
-22 -21 -21 -22 -22 -21 -21 -20 -20 -20 -20 -20 -19 -19 -20 -20 -20 -19 -19 -19 -18 -18 -18 -17 -16 -16 -16 -16 -16 -17 -17 -17 -17 -17 -16 -16 -16 -17 -17 -16 -16 -16 -16
-21 -21 -20 -20 -20 -20 -21 -20 -19 -20 -20 -19 -19 -19 -19 -20 -20 -19 -18 -17 -17 -17 -17 -17 -16 -16 -15 -16 -16 -17 -17 -17 -17 -16 -17 -16 -16 -16 -16 -16 -16 -16 -16
-21 -20 -20 -20 -20 -19 -19 -19 -19 -19 -19 -19 -18 -19 -19 -19 -19 -18 -17 -17 -17 -17 -17 -16 -15 -15 -15 -16 -17 -17 -17 -17 -17 -16 -17 -16 -16 -16 -16 -16 -16 -16 -16
Height
5649 5640 5628 5619 5607 5596 5584 5572 5561 5553 5547 5542 5537 5531 5527 5524 5520 5513 5513 5516 5518 5522 5527 5532 5543 5551 5558 5566 5575 5588 5599 5609 5625 5636 5645 5656 5664 5671 5677 5683 5690 5697 5702
5629 5619 5609 5597 5586 5574 5561 5550 5540 5532 5526 5519 5514 5508 5503 5499 5494 5488 5488 5493 5495 5501 5506 5510 5517 5526 5536 5543 5551 5564 5576 5587 5600 5613 5625 5636 5648 5655 5662 5669 5676 5683 5690
5611 5600 5590 5578 5565 5552 5540 5530 5521 5511 5503 5496 5490 5486 5480 5475 5470 5466 5466 5471 5476 5482 5488 5492 5498 5504 5515 5521 5529 5541 5553 5564 5577 5590 5606 5614 5631 5638 5647 5655 5662 5669 5676
5594 5582 5571 5557 5543 5531 5521 5511 5500 5490 5482 5475 5468 5463 5458 5453 5449 5448 5449 5452 5458 5464 5470 5475 5482 5488 5495 5503 5511 5521 5531 5543 5556 5569 5583 5595 5611 5622 5631 5640 5648 5656 5663
5576 5563 5549 5535 5522 5511 5501 5490 5480 5471 5462 5455 5447 5442 5437 5434 5431 5431 5433 5436 5441 5447 5454 5460 5467 5474 5481 5489 5494 5505 5514 5523 5534 5548 5563 5575 5590 5604 5618 5627 5633 5640 5648
5556 5543 5529 5514 5502 5491 5480 5469 5458 5449 5440 5432 5428 5422 5419 5415 5414 5416 5420 5422 5426 5432 5440 5446 5453 5460 5466 5473 5480 5487 5497 5506 5516 5526 5543 5556 5574 5589 5600 5608 5617 5626 5635
5537 5523 5507 5494 5482 5470 5459 5448 5437 5427 5419 5413 5409 5404 5401 5399 5399 5401 5406 5409 5412 5418 5425 5433 5440 5446 5453 5460 5466 5472 5480 5490 5499 5510 5523 5541 5555 5570 5584 5592 5603 5614 5622
5520 5503 5488 5475 5463 5452 5440 5427 5417 5408 5402 5397 5392 5388 5385 5384 5386 5390 5393 5396 5400 5405 5412 5420 5428 5435 5440 5446 5452 5458 5464 5473 5483 5495 5511 5526 5540 5553 5566 5578 5589 5599 5608
5500 5485 5471 5456 5444 5431 5418 5407 5399 5392 5386 5380 5376 5372 5371 5372 5375 5380 5382 5384 5389 5395 5401 5410 5419 5425 5430 5435 5439 5445 5451 5458 5468 5480 5493 5507 5523 5539 5553 5565 5580 5591 5598
5484 5470 5455 5440 5425 5412 5400 5392 5386 5379 5373 5366 5361 5360 5360 5361 5363 5368 5371 5374 5379 5385 5392 5400 5407 5414 5419 5422 5428 5434 5440 5448 5454 5465 5478 5493 5512 5529 5542 5558 5567 5577 5585
5470 5455 5440 5425 5410 5398 5391 5383 5375 5367 5360 5356 5354 5353 5352 5353 5355 5359 5362 5366 5372 5378 5385 5392 5399 5405 5410 5416 5420 5426 5434 5438 5444 5454 5466 5484 5503 5518 5533 5546 5557 5566 5574
5459 5443 5429 5415 5403 5394 5385 5376 5367 5360 5356 5353 5351 5350 5350 5350 5352 5354 5356 5361 5366 5372 5379 5386 5392 5397 5403 5408 5412 5421 5427 5430 5436 5445 5461 5481 5498 5514 5526 5537 5548 5556 5563
5450 5437 5422 5408 5398 5390 5381 5372 5364 5359 5356 5353 5351 5350 5350 5350 5350 5352 5354 5358 5362 5367 5372 5378 5383 5389 5394 5401 5407 5415 5420 5425 5434 5444 5463 5481 5496 5508 5519 5531 5540 5547 5553
5446 5436 5422 5408 5398 5390 5383 5375 5370 5365 5361 5358 5356 5355 5354 5354 5353 5353 5354 5355 5357 5359 5364 5369 5374 5380 5388 5395 5402 5409 5415 5422 5433 5451 5467 5480 5492 5504 5514 5525 5534 5540 5545
5443 5435 5426 5415 5405 5396 5388 5380 5375 5371 5367 5363 5361 5359 5357 5355 5353 5352 5352 5352 5354 5357 5360 5363 5368 5375 5384 5391 5400 5407 5415 5427 5439 5453 5466 5480 5492 5503 5513 5521 5528 5533 5537
5441 5433 5425 5417 5409 5400 5392 5386 5381 5377 5372 5368 5366 5364 5361 5359 5357 5355 5354 5354 5357 5360 5362 5364 5371 5379 5386 5393 5402 5410 5422 5433 5446 5458 5470 5482 5492 5502 5509 5516 5522 5525 5527
5439 5431 5424 5418 5411 5404 5397 5392 5387 5383 5379 5376 5374 5371 5369 5367 5365 5362 5360 5361 5363 5366 5367 5371 5378 5386 5393 5401 5410 5420 5430 5440 5450 5462 5473 5485 5493 5501 5507 5512 5516 5517 5517
5437 5430 5424 5419 5413 5408 5404 5399 5394 5390 5388 5386 5383 5381 5379 5378 5378 5375 5375 5375 5376 5378 5382 5387 5391 5396 5403 5412 5421 5430 5440 5449 5460 5470 5479 5488 5494 5500 5503 5505 5506 5508 5508
5437 5431 5425 5419 5416 5411 5408 5405 5400 5397 5396 5395 5392 5390 5389 5387 5388 5388 5388 5391 5393 5394 5398 5402 5406 5412 5417 5423 5431 5439 5447 5458 5467 5475 5482 5488 5492 5496 5500 5500 5501 5503 5506
5438 5433 5426 5421 5417 5413 5412 5410 5407 5405 5403 5402 5400 5397 5396 5396 5397 5397 5398 5400 5403 5405 5409 5413 5418 5423 5428 5433 5440 5448 5456 5463 5469 5476 5483 5489 5493 5495 5496 5498 5501 5504 5507
5439 5434 5430 5426 5421 5417 5414 5415 5414 5413 5411 5408 5407 5406 5406 5407 5407 5408 5410 5412 5413 5415 5418 5422 5427 5431 5437 5443 5449 5455 5462 5468 5476 5482 5488 5493 5494 5496 5497 5501 5504 5507 5509
5441 5435 5431 5430 5427 5423 5421 5420 5418 5417 5416 5415 5415 5415 5415 5416 5417 5417 5418 5420 5422 5424 5427 5431 5436 5442 5446 5452 5458 5464 5469 5475 5481 5487 5492 5496 5500 5502 5503 5505 5509 5513 5516
5443 5439 5435 5433 5431 5428 5428 5427 5427 5425 5424 5423 5423 5423 5423 5424 5425 5426 5428 5430 5432 5434 5438 5443 5447 5452 5457 5462 5466 5471 5475 5480 5486 5493 5498 5502 5505 5507 5510 5513 5515 5520 5524
5442 5440 5437 5437 5437 5435 5435 5435 5435 5434 5432 5432 5431 5432 5432 5434 5436 5436 5437 5439 5442 5444 5449 5455 5458 5463 5466 5469 5472 5476 5481 5487 5493 5499 5504 5508 5512 5515 5517 5519 5522 5527 5532
5449 5444 5442 5440 5439 5441 5441 5443 5442 5441 5441 5441 5442 5442 5442 5442 5443 5444 5445 5448 5451 5454 5460 5465 5468 5472 5474 5475 5478 5482 5489 5495 5500 5505 5511 5516 5520 5524 5527 5532 5536 5540 5542
5448 5446 5444 5446 5445 5446 5446 5448 5449 5450 5451 5451 5452 5452 5453 5453 5451 5451 5453 5456 5460 5466 5471 5475 5478 5480 5483 5484 5486 5490 5496 5502 5507 5512 5518 5523 5527 5531 5536 5539 5544 5548 5552
Wind_Speed
74 77 79 79 80 82 86 82 77 67 63 67 68 66 66 66 66 70 68 68 71 71 73 76 75 78 81 83 81 80 84 81 75 72 72 68 63 58 57 55 53 53 55
79 79 78 79 82 84 81 74 65 64 68 67 66 66 64 66 64 65 63 62 61 64 66 69 70 73 76 78 79 77 77 82 81 78 71 72 64 62 59 58 55 53 53
78 76 77 80 83 79 72 64 67 71 70 69 66 62 62 62 62 59 58 58 57 56 58 60 60 63 69 74 75 77 76 77 81 81 74 74 68 66 63 59 59 54 53
74 76 79 82 79 72 65 65 68 66 63 62 61 59 58 58 56 54 52 53 55 53 54 55 53 56 57 60 62 66 71 75 77 79 79 72 70 68 66 62 62 57 52
76 78 82 80 72 66 64 68 68 65 63 63 58 55 54 54 51 50 47 47 50 45 47 50 50 52 51 50 52 52 54 59 68 76 76 75 72 66 65 62 61 59 55
77 80 81 74 68 67 70 73 67 62 64 59 53 51 49 48 47 46 45 46 49 50 48 47 47 47 48 48 48 48 50 54 58 64 74 76 73 65 65 63 65 60 57
78 81 75 69 69 71 73 69 67 64 57 49 48 47 45 41 42 40 39 38 42 45 45 44 43 45 48 50 51 53 53 54 56 59 67 72 71 65 64 60 62 62 58
80 77 70 69 71 74 73 69 62 53 47 46 44 43 40 37 36 32 34 38 38 40 41 41 40 40 48 48 48 50 52 55 57 58 61 65 68 65 62 61 56 61 60
77 71 69 72 76 74 68 60 49 44 44 43 43 38 34 33 34 33 31 34 37 37 38 38 39 40 44 42 41 42 44 47 53 57 57 60 61 61 62 57 54 56 53
70 68 71 74 72 66 56 41 38 40 42 40 29 26 28 29 31 34 33 34 33 34 35 36 40 40 39 38 36 39 41 42 47 51 58 65 63 60 59 52 47 48 52
66 68 70 65 57 48 37 38 38 38 30 23 18 20 19 20 24 29 31 30 31 32 32 36 37 36 35 37 36 38 40 44 48 57 62 66 60 61 52 50 46 47 47
64 63 59 52 46 37 37 36 33 25 17 14 12 12 11 13 16 20 22 23 28 29 32 34 35 34 34 36 35 36 39 42 48 55 67 59 60 53 50 44 43 43 44
56 51 52 45 36 34 30 26 19 14 11 9 6 3 1 1 5 9 14 18 22 25 32 36 40 36 35 34 36 31 36 40 47 58 48 50 46 39 38 40 41 40 40
36 39 41 36 27 22 18 17 16 14 11 10 9 6 3 3 8 13 15 18 22 21 19 23 30 35 36 32 31 34 34 38 46 53 48 44 41 41 42 38 35 33 36
29 30 32 29 23 21 19 17 16 15 15 14 11 11 13 13 12 9 5 4 7 6 5 13 22 28 30 28 30 30 35 39 39 45 48 42 39 37 36 35 34 35 39
27 26 24 22 21 21 19 19 18 15 12 11 13 15 14 12 10 8 4 7 11 18 17 17 24 26 22 20 28 35 37 39 42 38 40 41 41 39 37 34 33 33 37
25 24 17 19 19 16 16 21 22 19 17 19 19 19 20 20 23 22 24 24 21 23 25 29 25 27 35 40 40 40 39 44 42 43 41 36 36 30 26 26 28 31 35
24 24 21 17 13 13 16 18 20 16 16 17 19 20 22 25 27 24 28 30 33 33 34 34 28 25 27 32 34 39 41 41 35 34 30 28 25 24 22 20 21 20 21
24 15 14 14 14 13 15 16 16 15 16 17 18 16 16 18 19 23 21 27 33 39 33 30 35 33 33 37 43 36 31 34 35 33 27 25 17 11 13 14 11 6 5
13 13 16 16 15 15 16 18 17 17 16 13 12 12 16 20 20 22 23 18 29 34 35 34 36 42 38 33 34 38 38 33 28 24 19 16 12 13 12 12 9 13 12
11 13 15 14 15 13 17 21 16 13 10 14 20 22 25 27 26 24 24 23 21 17 26 34 38 37 36 37 36 28 26 26 23 23 27 18 14 11 13 17 22 22 26
12 14 17 17 15 19 20 17 15 17 19 21 25 25 24 23 22 21 21 24 28 33 34 32 29 29 28 26 25 25 24 23 28 28 22 21 23 36 34 37 35 37 39
12 15 17 17 13 16 18 21 21 22 21 20 22 26 30 31 31 31 30 28 25 24 24 26 29 25 27 26 23 22 25 31 32 29 29 27 20 25 38 45 47 44 42
10 16 16 15 14 15 17 21 20 20 19 23 29 29 26 22 16 15 17 21 21 22 25 33 27 27 24 23 24 26 31 36 32 31 27 24 26 36 38 46 47 48 42
3 12 11 11 15 17 20 21 18 19 23 25 26 26 23 18 15 16 20 25 26 25 35 33 28 28 28 24 23 27 37 37 31 36 31 32 39 38 37 35 37 39 41
6 9 8 15 19 21 20 18 16 23 24 25 25 23 20 17 17 18 22 25 28 43 37 31 31 32 32 27 25 32 38 36 34 38 35 34 35 33 35 36 34 34 34
Wind_Direction
309 309 307 306 304 304 305 304 301 296 292 293 291 288 286 285 284 278 267 261 257 252 248 249 247 245 246 245 246 244 245 246 239 240 237 237 240 241 243 242 241 241 240
310 309 307 306 307 308 306 303 298 294 294 293 290 290 287 284 285 276 265 258 255 252 249 248 247 244 243 244 243 243 242 243 242 240 242 235 235 238 240 241 240 240 241
309 308 307 308 309 308 304 299 300 297 295 293 291 289 287 286 284 273 266 257 254 250 247 247 246 245 242 243 243 242 242 240 241 240 241 239 232 235 236 240 239 239 240
308 308 310 311 310 306 302 302 302 298 298 296 291 289 285 285 281 272 266 258 252 248 244 244 242 241 240 241 243 243 242 241 238 240 239 240 235 233 233 235 238 237 238
310 311 313 312 308 305 304 304 304 298 298 296 288 288 285 283 277 268 265 260 248 241 237 239 238 238 235 235 240 240 240 240 240 235 236 238 239 233 232 231 235 236 235
313 314 314 311 308 308 307 308 304 301 297 292 289 288 285 280 275 267 260 258 250 247 241 240 239 239 238 236 242 244 243 240 239 237 232 234 235 235 234 231 231 233 235
315 315 314 311 310 308 309 307 305 301 295 289 290 288 286 276 274 265 257 252 251 244 239 237 239 240 240 240 244 248 248 244 240 236 233 229 231 230 232 232 228 230 234
317 317 314 311 310 310 310 308 306 299 293 293 291 288 279 271 267 260 255 247 245 241 234 231 232 238 239 243 248 250 250 245 240 237 232 226 226 225 227 228 228 227 233
319 318 315 312 312 313 311 309 302 296 296 294 292 282 271 267 258 253 253 246 241 234 229 229 229 235 244 252 248 245 242 241 236 230 222 219 217 217 224 227 226 228 234
320 318 316 316 315 315 313 307 304 302 300 299 288 276 269 265 257 250 248 245 237 227 223 221 226 235 245 239 232 234 227 219 216 211 202 199 206 209 220 224 224 226 230
321 320 320 320 322 320 317 314 310 309 308 298 287 279 268 261 248 245 244 241 228 222 218 217 222 237 240 229 233 226 222 224 215 201 198 191 203 214 216 219 225 225 228
324 324 324 325 325 322 322 321 322 322 313 300 287 277 267 255 243 239 237 230 224 218 217 222 228 236 235 228 231 219 222 226 218 209 187 189 199 211 219 218 221 224 230
328 330 330 329 329 329 336 340 341 340 329 319 316 342 24 181 210 220 222 224 225 227 225 228 233 234 225 224 219 223 227 225 210 196 180 192 200 200 205 216 219 221 230
336 346 351 352 353 1 14 25 32 37 36 37 30 19 348 266 250 248 249 247 246 249 250 240 226 219 215 214 219 221 224 225 196 174 180 185 188 193 195 201 209 219 231
332 341 351 356 5 8 14 16 11 15 15 11 11 357 345 343 336 327 305 234 177 178 202 210 199 197 192 201 204 209 195 172 161 167 172 171 176 183 192 202 212 224 235
336 346 348 346 354 11 23 31 34 31 22 17 28 46 40 35 41 58 108 153 137 135 131 144 171 166 161 168 186 176 145 145 151 151 164 173 182 191 200 209 219 229 239
339 343 348 353 360 21 33 32 22 33 49 64 67 71 61 51 72 85 93 108 108 125 110 112 131 162 152 150 144 140 151 153 157 167 171 179 190 194 200 216 229 240 249
338 340 345 0 11 35 32 31 31 51 68 72 70 62 61 64 80 89 85 79 91 102 113 130 130 135 129 127 131 144 150 151 162 169 171 173 179 197 210 228 240 252 266
340 353 14 17 30 28 30 35 51 74 87 86 79 74 65 71 93 101 96 98 108 112 120 134 131 138 146 145 144 146 149 149 151 157 167 180 179 190 214 228 227 228 191
6 26 27 16 13 14 28 60 85 84 83 66 63 62 73 89 103 109 106 113 124 117 121 135 145 142 147 144 140 143 148 153 163 154 139 139 156 194 185 149 141 167 175
359 28 28 3 10 40 68 86 92 86 82 84 85 89 92 98 109 115 129 132 133 125 123 130 134 133 137 144 148 148 151 139 134 136 133 144 162 126 116 128 136 138 132
18 35 33 25 56 81 88 86 73 75 89 88 97 99 103 114 120 121 126 128 130 129 131 132 133 136 130 128 135 136 137 136 134 132 133 140 138 117 122 131 129 121 117
15 35 52 45 53 81 84 88 93 98 100 106 106 110 112 109 110 118 121 122 126 131 130 122 118 125 131 134 136 133 132 132 132 129 122 144 144 144 129 121 120 117 116
11 29 39 65 91 97 99 99 103 109 111 116 116 110 97 84 89 114 127 135 132 130 126 125 132 130 129 127 121 121 129 133 131 120 120 139 143 134 136 133 131 128 126
50 24 46 82 110 116 114 114 117 120 123 116 106 98 86 80 93 111 130 126 128 128 125 131 136 124 114 108 111 121 135 133 133 126 126 137 133 125 124 124 124 128 131
43 27 86 127 135 134 129 123 128 132 124 114 109 99 86 74 80 105 118 120 124 129 128 139 125 114 108 102 109 129 138 135 131 128 130 141 129 123 124 125 125 129 132